When you browse on this site, cookies collect data to enhance your experience and personalize the content and advertising you see.
Visit our Privacy Policy to learn more. By continuing to use the site, you agree to this use of cookies and data.
  • In United Kingdom
  • List of Countries
  • For 7 days
  • Water Temperature
  • Satellite Maps
  • Weather Map
  • Weather Widgets
  • user-avatar
    Login

    Hourly Weather Neiva

    Today, 25 April, Thursday

    Time Temperature Precipitation Wind Pressure Humidity
    00:00 +26°C° 0.3 mm 1 mps 722 mmHg 76%
    01:00 +26°C° 0 mm 1 mps 722 mmHg 77%
    02:00 +26°C° 0.1 mm 1 mps 722 mmHg 76%
    03:00 +26°C° 0.1 mm 1 mps 722 mmHg 75%
    04:00 +26°C° 0.1 mm 1 mps 722 mmHg 74%
    05:00 +26°C° 0 mm 1 mps 722 mmHg 72%
    06:00 +26°C° 0 mm 1 mps 722 mmHg 70%
    07:00 +27°C° 0 mm 1 mps 722 mmHg 66%
    08:00 +29°C° 0 mm 2 mps 723 mmHg 61%
    09:00 +30°C° 0 mm 2 mps 723 mmHg 55%
    10:00 +32°C° 0 mm 2 mps 723 mmHg 50%
    11:00 +34°C° 0.1 mm 2 mps 722 mmHg 46%
    12:00 +36°C° 0.1 mm 2 mps 722 mmHg 43%
    13:00 +37°C° 0.1 mm 2 mps 721 mmHg 40%
    14:00 +37°C° 0.1 mm 2 mps 721 mmHg 41%
    15:00 +37°C° 0.1 mm 2 mps 720 mmHg 41%
    16:00 +37°C° 0.1 mm 2 mps 720 mmHg 42%
    17:00 +34°C° 0.1 mm 2 mps 720 mmHg 49%
    18:00 +31°C° 0.1 mm 2 mps 720 mmHg 57%
    19:00 +29°C° 0.1 mm 2 mps 720 mmHg 64%
    20:00 +28°C° 0 mm 2 mps 721 mmHg 65%
    21:00 +28°C° 0 mm 2 mps 722 mmHg 67%
    22:00 +27°C° 0 mm 2 mps 722 mmHg 69%
    23:00 +27°C° 0 mm 2 mps 722 mmHg 68%

    Tomorrow, 26 April, Friday

    Time Temperature Precipitation Wind Pressure Humidity
    00:00 +27°C° 0 mm 2 mps 722 mmHg 68%
    01:00 +27°C° 0 mm 1 mps 722 mmHg 67%
    02:00 +26°C° 0 mm 1 mps 722 mmHg 66%
    03:00 +26°C° 0 mm 1 mps 722 mmHg 65%
    04:00 +26°C° 0 mm 1 mps 721 mmHg 65%
    05:00 +27°C° 0 mm 1 mps 722 mmHg 62%
    06:00 +27°C° 0 mm 1 mps 722 mmHg 60%
    07:00 +28°C° 0 mm 1 mps 722 mmHg 58%
    08:00 +29°C° 0.1 mm 2 mps 723 mmHg 55%
    09:00 +31°C° 0.1 mm 2 mps 723 mmHg 52%
    10:00 +32°C° 0.1 mm 2 mps 723 mmHg 49%
    11:00 +33°C° 0.1 mm 3 mps 723 mmHg 49%
    12:00 +33°C° 0.1 mm 3 mps 722 mmHg 50%
    13:00 +33°C° 0.1 mm 3 mps 722 mmHg 51%
    14:00 +32°C° 0.1 mm 2 mps 721 mmHg 52%
    15:00 +32°C° 0.1 mm 2 mps 720 mmHg 53%
    16:00 +31°C° 0.1 mm 2 mps 720 mmHg 54%
    17:00 +30°C° 0 mm 1 mps 720 mmHg 59%
    18:00 +28°C° 0 mm 1 mps 720 mmHg 65%
    19:00 +25°C° 0 mm 0 mps 721 mmHg 71%
    20:00 +24°C° 0 mm 0 mps 721 mmHg 72%
    21:00 +24°C° 0 mm 0 mps 722 mmHg 73%
    22:00 +26°C° 0 mm 1 mps 723 mmHg 74%
    23:00 +26°C° 0 mm 1 mps 722 mmHg 75%

    Day after tomorrow, 27 April, Saturday

    Time Temperature Precipitation Wind Pressure Humidity
    00:00 +25°C° 0 mm 1 mps 722 mmHg 75%
    01:00 +25°C° 0 mm 1 mps 722 mmHg 75%
    02:00 +25°C° 0 mm 1 mps 721 mmHg 74%
    03:00 +25°C° 0 mm 1 mps 721 mmHg 74%
    04:00 +25°C° 0 mm 1 mps 721 mmHg 73%
    05:00 +26°C° 0 mm 1 mps 721 mmHg 71%
    06:00 +26°C° 0 mm 1 mps 722 mmHg 68%
    07:00 +27°C° 0 mm 1 mps 722 mmHg 66%
    08:00 +28°C° 0.1 mm 1 mps 722 mmHg 62%
    09:00 +30°C° 0.1 mm 1 mps 723 mmHg 58%
    10:00 +31°C° 0.1 mm 1 mps 723 mmHg 54%
    11:00 +31°C° 0.3 mm 1 mps 722 mmHg 57%
    12:00 +30°C° 0.3 mm 1 mps 722 mmHg 59%
    13:00 +30°C° 0.3 mm 1 mps 721 mmHg 62%
    14:00 +30°C° 0.1 mm 1 mps 720 mmHg 62%
    15:00 +30°C° 0.1 mm 2 mps 719 mmHg 62%
    16:00 +30°C° 0.1 mm 2 mps 719 mmHg 62%
    17:00 +29°C° 0.1 mm 2 mps 719 mmHg 65%
    18:00 +28°C° 0.1 mm 2 mps 720 mmHg 68%
    19:00 +27°C° 0.1 mm 2 mps 720 mmHg 71%
    20:00 +27°C° 0 mm 2 mps 721 mmHg 72%
    21:00 +27°C° 0 mm 1 mps 721 mmHg 73%
    22:00 +26°C° 0 mm 1 mps 722 mmHg 74%
    23:00 +26°C° 0.1 mm 1 mps 721 mmHg 74%

    28 April, Sunday

    Time Temperature Precipitation Wind Pressure Humidity
    00:00 +26°C° 0.1 mm 1 mps 721 mmHg 74%
    01:00 +26°C° 0.1 mm 1 mps 721 mmHg 74%
    02:00 +26°C° 0.1 mm 1 mps 720 mmHg 74%
    03:00 +25°C° 0.1 mm 1 mps 720 mmHg 74%
    04:00 +25°C° 0.1 mm 1 mps 720 mmHg 74%
    05:00 +26°C° 0 mm 1 mps 720 mmHg 72%
    06:00 +26°C° 0 mm 1 mps 721 mmHg 70%
    07:00 +27°C° 0 mm 1 mps 721 mmHg 68%
    08:00 +28°C° 0.1 mm 1 mps 722 mmHg 64%
    09:00 +30°C° 0.1 mm 1 mps 722 mmHg 59%
    10:00 +31°C° 0.1 mm 1 mps 723 mmHg 55%
    11:00 +31°C° 0.2 mm 1 mps 722 mmHg 54%
    12:00 +32°C° 0.2 mm 2 mps 721 mmHg 54%
    13:00 +32°C° 0.2 mm 2 mps 721 mmHg 53%
    14:00 +32°C° 0.1 mm 2 mps 720 mmHg 52%
    15:00 +32°C° 0.1 mm 2 mps 719 mmHg 51%
    16:00 +34°C° 0.1 mm 2 mps 719 mmHg 50%
    17:00 +31°C° 0 mm 2 mps 719 mmHg 55%
    18:00 +29°C° 0 mm 2 mps 720 mmHg 60%
    19:00 +28°C° 0 mm 2 mps 720 mmHg 65%
    20:00 +28°C° 0 mm 2 mps 721 mmHg 66%
    21:00 +27°C° 0 mm 2 mps 721 mmHg 67%
    22:00 +27°C° 0 mm 2 mps 722 mmHg 68%
    23:00 +27°C° 0.1 mm 2 mps 721 mmHg 68%

    29 April, Monday

    Time Temperature Precipitation Wind Pressure Humidity
    00:00 +27°C° 0.1 mm 2 mps 721 mmHg 68%
    01:00 +26°C° 0.1 mm 2 mps 721 mmHg 68%
    02:00 +26°C° 0 mm 1 mps 721 mmHg 68%
    03:00 +26°C° 0 mm 1 mps 720 mmHg 67%
    04:00 +26°C° 0 mm 1 mps 720 mmHg 66%
    05:00 +26°C° 0 mm 1 mps 720 mmHg 64%
    06:00 +27°C° 0 mm 1 mps 721 mmHg 62%
    07:00 +28°C° 0 mm 1 mps 722 mmHg 60%
    08:00 +30°C° 0 mm 1 mps 722 mmHg 54%
    09:00 +32°C° 0 mm 1 mps 722 mmHg 48%
    10:00 +34°C° 0 mm 1 mps 722 mmHg 42%
    11:00 +35°C° 0 mm 1 mps 722 mmHg 39%
    12:00 +37°C° 0 mm 1 mps 721 mmHg 36%
    13:00 +39°C° 0 mm 1 mps 720 mmHg 34%
    14:00 +37°C° 0 mm 1 mps 719 mmHg 35%
    15:00 +37°C° 0 mm 1 mps 719 mmHg 36%
    16:00 +36°C° 0 mm 1 mps 718 mmHg 37%
    17:00 +35°C° 0 mm 2 mps 719 mmHg 43%
    18:00 +32°C° 0 mm 2 mps 719 mmHg 50%
    19:00 +29°C° 0 mm 2 mps 720 mmHg 57%
    20:00 +29°C° 0 mm 2 mps 721 mmHg 59%
    21:00 +28°C° 0 mm 2 mps 721 mmHg 61%
    22:00 +28°C° 0 mm 2 mps 722 mmHg 63%
    23:00 +27°C° 0 mm 2 mps 721 mmHg 63%

    30 April, Tuesday

    Time Temperature Precipitation Wind Pressure Humidity
    00:00 +27°C° 0 mm 2 mps 721 mmHg 64%
    01:00 +26°C° 0 mm 2 mps 721 mmHg 64%
    02:00 +26°C° 0 mm 2 mps 720 mmHg 63%
    03:00 +26°C° 0 mm 2 mps 720 mmHg 63%
    04:00 +26°C° 0 mm 2 mps 720 mmHg 62%
    05:00 +27°C° 0 mm 1 mps 721 mmHg 60%
    06:00 +27°C° 0 mm 1 mps 721 mmHg 57%
    07:00 +28°C° 0 mm 1 mps 722 mmHg 54%
    08:00 +30°C° 0 mm 1 mps 722 mmHg 49%
    09:00 +33°C° 0 mm 1 mps 722 mmHg 43%
    10:00 +36°C° 0 mm 2 mps 722 mmHg 37%
    11:00 +37°C° 0 mm 2 mps 721 mmHg 35%
    12:00 +38°C° 0 mm 2 mps 721 mmHg 33%
    13:00 +40°C° 0 mm 1 mps 720 mmHg 30%
    14:00 +39°C° 0.1 mm 2 mps 719 mmHg 31%
    15:00 +39°C° 0.1 mm 2 mps 719 mmHg 31%
    16:00 +38°C° 0.1 mm 2 mps 718 mmHg 32%
    17:00 +36°C° 0 mm 2 mps 719 mmHg 39%
    18:00 +34°C° 0 mm 2 mps 720 mmHg 46%
    19:00 +30°C° 0 mm 2 mps 720 mmHg 53%
    20:00 +29°C° 0 mm 2 mps 721 mmHg 56%
    21:00 +29°C° 0 mm 2 mps 722 mmHg 59%
    22:00 +28°C° 0 mm 2 mps 722 mmHg 62%
    23:00 +27°C° 0 mm 2 mps 722 mmHg 62%
    Show more